LDPE-3A

Last updated on Wed Sep 17 2025 00:02:51 GMT+0000 (Coordinated Universal Time)

1 55264U 23008B 25259.29959330 -.00000023 00000+0 00000+0 0 9992 2 55264 1.5691 84.6281 0002150 118.0505 267.6467 0.99973421 9071
UTC large
Height (km)
Speed (km/s)
/
Latitude / Longitude
Inclination (degrees)
Orbital Period (minutes)
Azimuth
Elevation
Range (km)
Doppler Factor

Next 0 passes for location: London (51.5072 / 0.1276)

Sorry there are no passes over London.